Lid_Strength_Index
1 6 8 8 13 15 17 15 14 13 11 10 8 8 9 9 9 11 4 1 1 1 -0 -0 -0 -1 -1 -1 -1 -1 -1 -1 -1 -1 -1 -1 -1 -1 -1 -1 -1 -1 -2 -1 -2 -2 -2 -1 -1
4 7 8 11 15 18 17 14 13 11 9 8 8 7 8 8 6 5 4 1 0 0 -0 -0 -0 -0 -1 -1 -1 -1 -1 -1 -1 -1 -1 -1 -1 -1 -1 -1 -1 -1 -2 -2 -2 -2 -2 -1 -1
5 7 10 13 17 18 17 14 11 10 9 9 10 8 7 7 5 4 2 1 0 0 -0 -0 -0 -0 -0 -1 -1 -1 -1 -0 -1 -1 -1 -1 -1 -1 -1 -1 -1 -1 -2 -2 -2 -2 -2 -1 -1
7 9 11 15 16 14 14 13 11 10 9 9 10 9 6 3 4 3 1 1 1 0 0 0 0 -0 -0 -1 -1 -1 -1 -0 -1 -1 -1 -1 -1 -1 -1 -1 -1 -1 -2 -2 -2 -2 -1 -1 -1
10 11 15 17 15 13 12 11 10 10 9 8 9 10 7 4 2 2 1 1 2 1 -0 -0 0 -0 -0 -1 -1 -1 -0 -0 -1 -1 -1 -1 -1 -1 -1 -1 -1 -1 -1 -1 -1 -1 -1 -1 -1
13 13 17 18 16 12 11 10 10 10 9 9 10 9 7 3 3 2 1 1 2 1 1 1 -0 -0 -0 -1 -0 -0 -0 -0 -1 -1 -1 -1 -1 -1 -1 -1 -1 -1 -1 -1 -1 -1 -1 -1 -1
14 15 17 17 16 13 11 10 10 10 11 10 7 8 6 5 3 2 2 2 2 2 1 1 1 -0 0 0 0 0 -0 0 -1 -1 -1 -1 -1 -1 -1 -1 -1 -1 -1 -1 -1 -1 -1 -1 -1
12 14 18 17 15 14 10 10 9 11 10 7 5 9 8 5 2 2 2 2 3 3 2 2 0 0 -0 -0 1 1 1 1 -1 -1 -1 -0 -0 -1 -1 -1 -1 -1 -1 -1 -1 -1 -1 -1 -1
12 16 18 16 14 12 9 10 9 9 10 9 8 5 4 3 3 3 4 4 4 3 3 2 1 1 -0 1 1 1 1 0 0 -0 -0 -0 -1 -0 -0 -1 -1 -1 -1 -1 -1 -1 -1 -1 -1
12 16 16 13 11 12 11 11 10 10 10 10 9 5 4 3 4 4 4 4 4 3 3 3 2 2 1 1 1 1 1 1 1 1 0 0 -0 0 -0 -1 -1 -1 -1 -1 -1 -1 -1 -0 0
11 14 12 11 10 11 11 11 9 11 12 9 9 8 5 4 4 4 4 4 3 3 3 3 3 2 2 2 2 2 1 1 1 1 0 0 0 -0 -1 -0 -0 -1 -1 1 1 -0 1 1 1
12 11 10 11 9 10 11 10 10 10 9 7 8 8 5 5 5 4 4 4 4 4 3 3 2 3 2 1 2 2 1 1 1 1 1 1 1 0 0 -0 -0 -0 0 2 1 1 1 2 2
12 10 9 9 9 10 10 10 9 10 8 7 7 8 5 5 4 4 4 4 4 4 3 3 2 2 2 2 2 2 2 1 1 2 0 0 0 0 0 -0 0 0 2 3 3 3 2 3 3
12 12 12 11 10 9 10 9 11 9 7 8 8 9 6 5 4 4 5 5 4 3 4 3 2 2 1 2 2 2 1 1 1 2 1 -0 -0 0 0 0 1 1 2 3 4 3 3 4 3
10 12 11 11 10 11 10 12 11 8 8 9 9 8 8 4 4 4 3 4 4 3 3 4 4 3 2 2 2 2 1 1 2 2 1 -0 -0 0 -0 1 2 2 2 3 4 4 4 4 4
12 13 15 12 10 9 10 14 10 8 9 9 9 9 9 7 4 4 3 4 4 4 4 4 3 2 1 2 2 2 2 2 1 1 1 0 -0 -0 0 1 2 2 2 3 4 4 4 4 4
14 17 15 13 10 10 12 13 11 9 9 10 9 9 9 9 5 4 3 5 4 3 4 5 4 2 1 1 1 1 2 2 1 1 1 1 -0 -0 0 1 2 4 3 3 4 5 4 4 4
17 16 17 15 11 11 12 12 10 9 9 9 8 9 9 10 8 5 3 3 3 4 5 4 5 4 2 1 1 0 2 2 1 1 1 1 1 0 1 2 3 3 3 3 4 4 4 3 4
13 14 15 14 11 12 12 12 11 9 10 10 9 9 9 9 7 5 3 3 4 5 4 4 4 4 2 2 2 2 2 2 2 0 0 1 1 1 2 3 4 4 3 3 4 5 5 5 4
14 15 16 13 11 12 13 13 11 10 10 8 9 9 9 9 6 5 4 3 4 4 4 4 3 3 1 2 1 1 2 1 1 0 1 2 2 3 3 4 4 4 4 4 4 5 6 6 4
13 14 14 13 11 11 12 14 12 10 9 8 8 8 8 8 6 6 5 4 3 4 4 4 4 3 2 1 1 2 1 2 2 1 2 2 3 4 3 4 4 4 4 5 4 5 5 5 6
15 10 11 12 14 17 12 19 13 11 10 8 8 9 8 8 6 5 5 5 4 4 4 4 4 3 2 1 2 2 3 3 3 2 2 3 3 4 4 4 4 4 4 4 4 4 5 5 6
13 10 12 12 14 14 14 17 15 12 11 10 9 8 8 8 5 6 5 4 3 4 4 4 4 3 1 1 1 2 2 2 2 2 3 2 3 3 3 3 3 4 4 4 4 4 4 4 5
9 11 12 12 13 19 15 15 16 13 12 10 8 8 8 9 5 5 4 4 4 4 4 4 4 2 1 2 2 2 3 2 3 3 3 3 3 3 3 3 3 3 3 3 3 4 4 5 5
11 14 19 20 20 20 13 16 14 10 10 9 8 8 8 8 6 6 5 5 4 4 5 4 4 3 2 2 2 2 2 3 2 3 3 3 3 3 3 3 3 3 3 3 3 3 4 4 5
13 14 18 23 22 20 14 17 14 10 8 8 7 7 8 9 5 6 5 5 4 4 5 4 5 3 2 2 2 2 3 2 2 2 2 3 3 3 2 2 2 3 3 3 3 3 3 3 4
13 16 12 17 16 19 17 14 11 10 10 9 8 7 7 8 6 6 5 4 4 4 4 4 4 3 3 2 2 2 2 3 2 2 2 2 3 3 2 2 2 2 2 2 3 3 2 3 3
12 10 17 16 22 23 18 18 17 13 12 10 9 8 7 6 7 6 5 5 4 4 4 4 3 3 2 2 2 2 2 2 2 2 3 3 3 2 2 2 2 2 2 2 2 2 2 2 2
13 14 14 14 16 21 22 19 12 12 10 10 9 8 8 7 6 6 5 4 4 4 4 5 4 3 3 2 2 2 2 2 3 3 4 4 4 3 2 2 2 2 2 2 2 3 2 2 2
11 13 13 18 19 17 18 18 10 10 9 8 8 8 7 6 6 5 5 4 4 5 5 5 4 3 3 3 2 2 2 2 2 3 3 4 4 4 3 2 2 2 2 2 2 2 2 2 2